Location: Flynn Junction
(40.1314°N, 99.5162°W)
Time: 21:56:44
(UTC+00:00)

H-2A R/B - Pass Details

Date: 29 October 2020
Orbit: 528 x 653 km, 98.3° (Epoch: 30 November)

Event Time Altitude Azimuth Distance (km) Brightness Sun altitude
Rises 11:57:47 0° 21° (NNE) 2,920 6.2 -13.3°
Reaches altitude 10° 12:00:10 10° 30° (NNE) 1,990 5.5 -12.9°
Maximum altitude 12:04:10 36° 98° (E) 959 4.3 -12.1°
Drops below altitude 10° 12:08:00 10° 165° (SSE) 1,905 5.4 -11.4°
Sets 12:10:14 0° 174° (S) 2,778 6.1 -11.0°
